Theta_e
353 355 352 350 352 351 349 347 346 346 345 343 340 338 339 337 328 329 334 329 338 337 338 337 337 336 335 335 335 335 335 334 334
354 353 351 349 351 349 348 346 345 343 342 341 338 338 335 329 327 328 328 329 337 337 336 335 336 335 335 334 334 335 334 334 332
353 351 351 350 351 349 347 345 344 342 341 339 337 336 333 328 328 329 330 337 337 336 336 336 337 336 336 335 334 334 332 333 331
351 349 351 350 350 349 347 345 343 341 339 337 336 334 332 325 328 330 330 338 337 337 336 337 336 335 334 334 333 331 332 331 331
346 345 348 349 349 347 345 344 342 340 337 336 333 331 331 323 326 328 331 336 336 335 335 335 335 334 333 332 331 331 330 331 329
323 339 342 345 346 345 344 343 341 337 335 334 331 330 322 323 326 327 336 336 336 334 333 334 333 330 331 329 330 329 329 329 328
318 325 338 342 343 342 343 341 338 332 326 325 328 322 321 323 326 327 335 335 334 332 331 333 332 331 329 329 328 327 327 327 326
317 317 340 340 335 336 336 333 329 325 322 321 321 321 321 323 325 329 335 335 334 331 330 332 329 329 328 327 327 326 326 326 325
313 314 317 339 335 332 330 328 326 323 322 320 320 319 320 323 325 327 332 334 333 330 329 329 328 328 326 327 325 325 325 325 324
313 313 315 331 336 333 331 327 324 321 320 320 318 319 320 323 324 324 328 332 331 330 329 329 328 327 327 326 325 324 324 324 324
311 312 314 314 321 333 330 327 324 320 320 319 319 319 320 322 322 322 325 329 331 330 329 328 328 327 326 326 325 324 324 324 323
310 313 312 313 317 321 330 327 326 320 319 318 318 319 320 322 322 322 322 324 327 329 328 328 326 326 326 325 324 324 323 323 322
313 311 310 314 313 316 329 326 324 318 317 315 316 317 319 320 320 321 320 320 321 326 329 327 326 325 325 325 324 323 322 321 321
306 308 309 312 313 314 325 326 323 320 316 315 315 316 316 318 319 319 319 319 319 320 325 325 325 325 324 325 325 323 321 320 320
308 310 312 313 311 312 313 324 322 320 319 317 315 314 315 316 318 315 318 318 318 319 319 319 320 323 323 324 324 323 321 320 319
304 307 307 309 310 310 313 315 321 319 319 312 306 307 310 313 316 317 313 315 317 317 317 317 316 317 322 323 324 323 322 320 318
300 304 304 306 309 310 311 311 320 319 319 313 303 304 308 310 310 313 316 312 313 316 316 316 314 314 313 315 324 323 322 321 319
299 300 302 306 308 309 310 311 311 316 317 314 307 301 300 303 307 308 312 312 310 311 314 315 314 313 313 317 319 321 322 321 319
298 301 301 303 307 308 310 312 311 318 314 313 312 309 306 300 298 304 307 309 311 309 310 311 312 312 311 313 312 316 317 320 320
296 298 299 299 301 306 310 310 311 316 316 312 310 309 308 305 300 295 304 305 310 309 309 310 310 311 311 310 311 315 318 319 318
Wind_Speed
10 9 8 12 15 13 13 13 13 12 12 12 8 3 6 7 8 8 10 6 13 15 16 16 17 16 16 16 16 17 17 17 16
12 10 11 12 16 16 12 13 13 12 10 10 6 2 5 2 7 8 7 6 12 14 15 16 16 15 15 16 16 17 17 17 16
12 13 12 13 15 17 13 13 13 11 10 7 4 2 6 6 9 9 5 10 12 14 15 16 15 15 15 15 15 16 16 16 15
15 15 15 15 15 16 15 13 13 12 10 7 4 1 5 2 7 8 4 11 13 14 13 15 15 15 14 15 15 15 16 15 14
12 18 17 17 16 16 15 13 12 11 9 8 5 3 3 6 6 6 5 12 13 13 14 15 14 14 14 14 14 15 15 14 12
16 14 14 16 16 16 15 14 12 10 7 7 8 5 1 5 6 4 11 13 14 12 14 14 14 13 12 13 13 13 13 13 13
18 21 14 16 17 16 16 14 14 9 3 3 4 2 3 5 7 4 11 13 13 13 13 15 14 13 12 12 12 12 12 12 12
9 10 6 8 11 7 9 9 5 6 4 3 3 3 3 4 5 6 11 13 14 12 12 14 13 13 12 12 11 11 11 11 11
9 8 14 8 7 8 7 5 7 6 7 6 5 5 3 5 5 6 11 12 13 12 12 12 12 12 11 11 10 10 10 10 10
8 10 11 10 9 9 9 6 6 6 7 6 5 3 2 8 5 4 9 11 11 12 12 11 11 11 11 11 10 9 9 9 9
5 7 9 11 10 8 9 9 8 5 6 6 5 4 2 8 7 4 4 9 10 11 11 11 11 11 10 10 10 9 8 8 8
5 3 7 9 11 15 11 9 8 5 5 5 4 3 4 6 8 5 4 5 7 9 11 10 10 10 10 10 9 8 7 7 7
4 5 7 8 10 11 8 11 9 6 6 4 4 4 4 6 6 5 4 4 3 5 10 9 10 10 10 10 9 8 7 6 6
8 5 6 9 9 9 8 11 11 10 6 6 5 4 4 5 6 6 5 5 5 3 7 8 8 10 9 9 9 9 8 6 5
8 5 2 4 8 9 9 7 10 11 9 7 5 3 3 5 7 6 5 5 6 4 5 4 4 8 10 9 9 8 7 6 5
11 8 8 10 8 9 12 13 14 9 9 6 4 4 4 3 4 7 5 6 5 5 5 4 3 4 11 11 10 9 9 7 6
10 10 8 7 7 8 9 10 6 8 12 9 4 3 3 3 3 1 7 7 5 6 6 6 5 5 4 4 9 10 10 9 7
9 10 9 10 8 7 7 9 13 10 10 17 8 5 6 4 1 3 2 7 5 5 7 7 6 6 6 7 7 8 8 10 8
9 9 10 9 7 10 6 6 8 11 14 10 4 5 8 5 1 3 3 3 6 7 5 6 6 6 5 7 10 10 7 11 10
9 8 9 10 9 11 9 7 8 10 8 12 9 3 3 4 5 4 9 3 5 5 5 6 5 6 5 5 6 12 12 13 11
Wind_Direction
200 182 173 146 130 119 119 120 113 111 115 120 123 77 13 2 81 72 70 60 92 94 93 91 91 91 90 92 90 91 85 83 82
204 188 166 155 133 126 134 130 124 121 128 131 135 87 303 202 103 89 83 89 99 99 99 97 94 96 95 96 96 92 90 86 87
209 197 168 164 141 139 148 142 137 136 135 138 141 230 346 83 84 91 93 101 101 102 100 98 98 96 97 96 96 93 92 87 82
209 197 170 163 148 146 152 153 148 145 145 151 183 257 349 13 107 107 100 106 105 100 96 95 95 95 95 94 96 96 90 90 89
258 205 176 166 155 150 150 152 156 148 157 158 197 228 279 113 103 102 106 116 113 108 105 100 96 97 97 98 97 96 95 90 93
324 264 179 167 158 152 153 152 143 132 154 179 192 239 246 124 103 105 119 123 117 114 108 103 102 99 94 99 89 97 96 93 85
342 339 184 165 159 158 157 155 126 125 157 219 231 232 244 104 111 111 129 126 125 124 123 110 109 110 109 104 103 102 97 88 84
345 350 224 171 156 159 149 133 140 163 170 209 225 249 149 101 116 125 133 132 127 129 128 118 122 114 114 111 105 100 101 95 86
4 342 333 179 167 163 148 155 157 181 164 189 231 242 113 113 117 123 137 130 135 137 133 126 126 124 121 112 111 106 101 94 88
345 356 339 310 177 171 165 160 170 178 156 182 226 183 165 115 122 118 137 142 142 143 141 136 131 130 123 121 116 107 102 97 86
6 349 334 335 333 190 169 165 172 179 150 174 187 186 158 117 119 123 135 146 141 150 145 147 142 140 137 126 124 118 110 101 94
341 342 353 320 321 317 163 160 170 149 143 158 158 157 121 119 125 129 145 148 146 150 153 152 154 149 142 140 132 126 117 107 99
335 10 318 327 331 338 198 163 165 147 147 155 161 142 125 136 125 129 143 159 149 158 150 160 165 160 158 152 143 138 130 120 106
325 311 311 351 300 332 308 163 163 159 150 153 155 155 146 139 132 148 156 164 174 154 149 165 172 177 171 165 157 154 146 135 118
308 296 338 282 346 335 343 245 161 160 157 145 132 120 159 149 152 161 168 171 180 158 153 149 160 184 188 182 172 164 159 150 140
333 337 355 343 322 330 322 316 159 157 153 104 76 32 33 3 145 160 153 163 185 190 187 184 183 199 201 199 185 178 173 168 163
325 321 310 293 299 306 321 342 253 166 168 150 101 103 338 330 348 76 170 179 174 190 204 194 202 193 192 212 197 193 186 182 179
322 318 310 309 316 293 329 323 331 180 176 163 139 143 208 125 290 281 202 164 176 184 203 192 212 191 179 191 189 194 204 194 189
329 312 318 312 293 297 287 305 318 275 167 192 175 158 144 164 183 265 252 234 185 184 198 189 206 191 173 173 170 177 188 205 199
314 324 334 338 331 321 289 292 298 302 222 184 188 161 151 138 139 180 204 262 209 195 185 189 195 198 184 178 183 182 184 197 202